Time,TemperatureF,DewpointF,PressureIn,WindDirection,WindDirectionDegrees,WindSpeedMPH,WindSpeedGustMPH,Humidity,HourlyPrecipIn,Conditions,Clouds,dailyrainin,SoftwareType,DateUTC
2013-05-09 00:11:00,60.8,59.0,29.94,ESE,103,0.0,0.0,93,0.00,,,0.00,weatherlink.com 1.10,2013-05-09 05:11:00,
2013-05-09 00:26:00,61.1,59.0,29.93,ESE,103,0.0,0.0,93,0.00,,,0.00,weatherlink.com 1.10,2013-05-09 05:26:00,
2013-05-09 00:41:00,61.7,60.0,29.94,SSE,153,0.0,1.0,93,0.00,,,0.00,weatherlink.com 1.10,2013-05-09 05:41:00,
2013-05-09 00:56:00,62.0,60.0,29.93,SSE,153,0.0,0.0,92,0.00,,,0.00,weatherlink.com 1.10,2013-05-09 05:56:00,
2013-05-09 01:11:00,62.2,60.0,29.93,SSE,152,0.0,0.0,91,0.00,,,0.00,weatherlink.com 1.10,2013-05-09 06:11:00,
2013-05-09 01:26:00,62.5,60.0,29.92,SSE,152,0.0,0.0,90,0.00,,,0.00,weatherlink.com 1.10,2013-05-09 06:26:00,
2013-05-09 01:41:00,62.8,60.0,29.91,ESE,120,2.0,2.0,90,0.00,,,0.00,weatherlink.com 1.10,2013-05-09 06:41:00,
2013-05-09 01:56:00,63.9,60.0,29.91,ESE,115,1.0,3.0,87,0.00,,,0.00,weatherlink.com 1.10,2013-05-09 06:56:00,
2013-05-09 02:11:00,64.9,60.0,29.91,SE,132,1.0,3.0,84,0.00,,,0.00,weatherlink.com 1.10,2013-05-09 07:11:00,
2013-05-09 02:26:00,64.9,60.0,29.91,SSE,160,0.0,4.0,84,0.00,,,0.00,weatherlink.com 1.10,2013-05-09 07:26:00,
2013-05-09 02:41:00,64.8,60.0,29.90,SE,131,0.0,4.0,84,0.00,,,0.00,weatherlink.com 1.10,2013-05-09 07:41:00,
2013-05-09 02:56:00,64.7,60.0,29.91,South,191,0.0,0.0,84,0.03,,,0.03,weatherlink.com 1.10,2013-05-09 07:56:00,
2013-05-09 03:11:00,63.5,60.0,29.90,South,191,0.0,0.0,89,0.05,,,0.05,weatherlink.com 1.10,2013-05-09 08:11:00,
2013-05-09 03:26:00,62.5,60.0,29.90,SE,131,0.0,1.0,92,0.05,,,0.05,weatherlink.com 1.10,2013-05-09 08:26:00,
2013-05-09 03:41:00,61.9,60.0,29.89,SE,131,0.0,1.0,93,0.05,,,0.05,weatherlink.com 1.10,2013-05-09 08:41:00,
2013-05-09 03:56:00,61.5,60.0,29.89,SE,146,0.0,2.0,94,0.01,,,0.05,weatherlink.com 1.10,2013-05-09 08:56:00,
2013-05-09 04:11:00,61.4,60.0,29.89,SSE,147,0.0,1.0,95,0.00,,,0.05,weatherlink.com 1.10,2013-05-09 09:11:00,
2013-05-09 04:26:00,61.1,60.0,29.89,SSE,147,0.0,1.0,95,0.00,,,0.05,weatherlink.com 1.10,2013-05-09 09:26:00,
2013-05-09 04:41:00,61.3,60.0,29.89,SE,146,0.0,1.0,95,0.00,,,0.05,weatherlink.com 1.10,2013-05-09 09:41:00,
2013-05-09 04:56:00,61.7,60.0,29.88,SSE,153,1.0,1.0,95,0.00,,,0.05,weatherlink.com 1.10,2013-05-09 09:56:00,
2013-05-09 05:11:00,61.7,60.0,29.88,SW,219,0.0,0.0,94,0.00,,,0.05,weatherlink.com 1.10,2013-05-09 10:11:00,
2013-05-09 05:26:00,61.8,60.0,29.88,SE,129,0.0,3.0,94,0.00,,,0.05,weatherlink.com 1.10,2013-05-09 10:26:00,
2013-05-09 05:41:00,61.8,60.0,29.87,SE,129,0.0,1.0,94,0.00,,,0.05,weatherlink.com 1.10,2013-05-09 10:41:00,
2013-05-09 05:56:00,61.7,60.0,29.87,SE,139,0.0,1.0,94,0.00,,,0.05,weatherlink.com 1.10,2013-05-09 10:56:00,
2013-05-09 06:11:00,61.8,60.0,29.88,SE,140,0.0,1.0,94,0.00,,,0.05,weatherlink.com 1.10,2013-05-09 11:11:00,
2013-05-09 06:27:00,61.9,60.0,29.88,SW,218,0.0,1.0,94,0.00,,,0.05,weatherlink.com 1.10,2013-05-09 11:27:00,
2013-05-09 06:42:00,61.8,60.0,29.88,SSE,160,0.0,2.0,94,0.00,,,0.05,weatherlink.com 1.10,2013-05-09 11:42:00,
2013-05-09 06:57:00,63.6,61.0,29.90,North,4,0.0,11.0,90,0.00,,,0.05,weatherlink.com 1.10,2013-05-09 11:57:00,
2013-05-09 07:12:00,64.0,61.0,29.90,WNW,287,1.0,8.0,89,0.00,,,0.05,weatherlink.com 1.10,2013-05-09 12:12:00,
2013-05-09 07:27:00,64.8,62.0,29.89,NNE,12,1.0,2.0,89,0.00,,,0.05,weatherlink.com 1.10,2013-05-09 12:27:00,
2013-05-09 07:42:00,66.2,63.0,29.89,East,82,2.0,4.0,89,0.00,,,0.05,weatherlink.com 1.10,2013-05-09 12:42:00,
2013-05-09 07:57:00,66.9,62.0,29.89,NNE,31,2.0,4.0,85,0.00,,,0.05,weatherlink.com 1.10,2013-05-09 12:57:00,
2013-05-09 08:12:00,67.5,62.0,29.88,NNE,18,0.0,3.0,83,0.00,,,0.05,weatherlink.com 1.10,2013-05-09 13:12:00,
2013-05-09 08:42:00,69.3,62.0,29.88,SSE,160,2.0,5.0,78,0.00,,,0.05,weatherlink.com 1.10,2013-05-09 13:42:00,
2013-05-09 08:57:00,69.8,63.0,29.88,SE,132,2.0,5.0,78,0.00,,,0.05,weatherlink.com 1.10,2013-05-09 13:57:00,
2013-05-09 09:12:00,69.5,62.0,29.87,SSE,147,0.0,5.0,77,0.00,,,0.05,weatherlink.com 1.10,2013-05-09 14:12:00,
2013-05-09 09:28:00,68.5,63.0,29.90,West,281,3.0,4.0,83,0.07,,,0.12,weatherlink.com 1.10,2013-05-09 14:28:00,
2013-05-09 09:40:00,-999.0,-99.9,0.00,North,-999,-999.0,-999.0,-999,0.00,,,0.00,weatherlink.com 1.10,2013-05-09 14:40:00,
2013-05-09 09:53:00,63.7,61.0,29.90,SSW,210,0.0,4.0,92,0.00,,,0.00,weatherlink.com 1.10,2013-05-09 14:53:00,
2013-05-09 10:08:00,63.2,62.0,29.89,ESE,106,0.0,1.0,94,0.03,,,0.03,weatherlink.com 1.10,2013-05-09 15:08:00,
2013-05-09 10:23:00,63.2,62.0,29.90,ESE,106,0.0,1.0,95,0.05,,,0.05,weatherlink.com 1.10,2013-05-09 15:23:00,
2013-05-09 10:38:00,63.5,62.0,29.90,ESE,118,3.0,4.0,96,0.06,,,0.06,weatherlink.com 1.10,2013-05-09 15:38:00,
2013-05-09 10:53:00,64.0,63.0,29.90,SSE,149,1.0,4.0,96,0.06,,,0.06,weatherlink.com 1.10,2013-05-09 15:53:00,
2013-05-09 11:08:00,65.1,64.0,29.90,SSW,208,0.0,2.0,97,0.03,,,0.06,weatherlink.com 1.10,2013-05-09 16:08:00,
2013-05-09 11:23:00,65.2,64.0,29.88,SE,131,2.0,2.0,95,0.03,,,0.08,weatherlink.com 1.10,2013-05-09 16:23:00,
2013-05-09 11:38:00,65.8,64.0,29.88,South,170,0.0,4.0,94,0.02,,,0.08,weatherlink.com 1.10,2013-05-09 16:38:00,
2013-05-09 11:53:00,66.2,64.0,29.89,SSE,158,0.0,1.0,93,0.03,,,0.09,weatherlink.com 1.10,2013-05-09 16:53:00,
2013-05-09 12:08:00,65.4,63.0,29.87,SW,226,0.0,4.0,93,0.07,,,0.13,weatherlink.com 1.10,2013-05-09 17:08:00,
2013-05-09 12:23:00,65.4,64.0,29.86,SSW,198,0.0,1.0,95,0.07,,,0.15,weatherlink.com 1.10,2013-05-09 17:23:00,
2013-05-09 12:38:00,66.7,65.0,29.86,East,98,3.0,5.0,93,0.07,,,0.15,weatherlink.com 1.10,2013-05-09 17:38:00,
2013-05-09 12:53:00,67.4,65.0,29.85,East,100,2.0,7.0,90,0.05,,,0.15,weatherlink.com 1.10,2013-05-09 17:53:00,
2013-05-09 13:23:00,69.4,66.0,29.84,East,99,3.0,7.0,89,0.00,,,0.15,weatherlink.com 1.10,2013-05-09 18:23:00,
2013-05-09 13:38:00,70.1,66.0,29.84,East,94,2.0,6.0,86,0.00,,,0.15,weatherlink.com 1.10,2013-05-09 18:38:00,
2013-05-09 13:53:00,71.2,66.0,29.83,SSE,155,1.0,6.0,84,0.00,,,0.15,weatherlink.com 1.10,2013-05-09 18:53:00,
2013-05-09 14:08:00,71.0,64.0,29.82,SSE,163,2.0,6.0,79,0.00,,,0.15,weatherlink.com 1.10,2013-05-09 19:08:00,
2013-05-09 14:23:00,70.2,65.0,29.82,SW,229,1.0,6.0,84,0.00,,,0.15,weatherlink.com 1.10,2013-05-09 19:23:00,
2013-05-09 14:38:00,69.4,65.0,29.82,SE,136,2.0,6.0,86,0.00,,,0.15,weatherlink.com 1.10,2013-05-09 19:38:00,
2013-05-09 14:53:00,68.1,65.0,29.82,SSW,193,2.0,8.0,89,0.01,,,0.16,weatherlink.com 1.10,2013-05-09 19:53:00,
2013-05-09 15:08:00,68.1,65.0,29.82,WNW,284,4.0,10.0,89,0.01,,,0.16,weatherlink.com 1.10,2013-05-09 20:08:00,
2013-05-09 15:23:00,68.1,63.0,29.82,SW,226,4.0,14.0,84,0.01,,,0.16,weatherlink.com 1.10,2013-05-09 20:23:00,
2013-05-09 15:38:00,68.8,64.0,29.82,NW,325,2.0,10.0,84,0.01,,,0.16,weatherlink.com 1.10,2013-05-09 20:38:00,
2013-05-09 15:53:00,69.4,64.0,29.82,NE,49,1.0,6.0,83,0.00,,,0.16,weatherlink.com 1.10,2013-05-09 20:53:00,
2013-05-09 16:08:00,69.9,65.0,29.81,ESE,110,2.0,9.0,84,0.00,,,0.16,weatherlink.com 1.10,2013-05-09 21:08:00,
2013-05-09 16:23:00,71.0,65.0,29.81,West,281,0.0,8.0,80,0.00,,,0.16,weatherlink.com 1.10,2013-05-09 21:23:00,
2013-05-09 16:54:00,72.9,65.0,29.81,West,270,4.0,8.0,75,0.00,,,0.16,weatherlink.com 1.10,2013-05-09 21:54:00,
2013-05-09 17:09:00,72.7,64.0,29.82,WNW,290,4.0,7.0,75,0.00,,,0.16,weatherlink.com 1.10,2013-05-09 22:09:00,
2013-05-09 17:24:00,72.9,64.0,29.82,NW,318,7.0,9.0,73,0.00,,,0.16,weatherlink.com 1.10,2013-05-09 22:24:00,
2013-05-09 17:39:00,73.4,64.0,29.82,WSW,253,2.0,7.0,73,0.00,,,0.16,weatherlink.com 1.10,2013-05-09 22:39:00,
2013-05-09 17:54:00,73.4,64.0,29.82,SE,135,4.0,8.0,73,0.00,,,0.16,weatherlink.com 1.10,2013-05-09 22:54:00,
2013-05-09 18:09:00,73.6,63.0,29.81,SSE,155,3.0,10.0,70,0.00,,,0.16,weatherlink.com 1.10,2013-05-09 23:09:00,
2013-05-09 18:24:00,72.9,63.0,29.80,South,175,0.0,6.0,72,0.00,,,0.16,weatherlink.com 1.10,2013-05-09 23:24:00,
2013-05-09 18:39:00,71.6,63.0,29.80,SSW,205,1.0,3.0,75,0.00,,,0.16,weatherlink.com 1.10,2013-05-09 23:39:00,
2013-05-09 18:54:00,71.6,63.0,29.80,SW,229,0.0,3.0,75,0.00,,,0.16,weatherlink.com 1.10,2013-05-09 23:54:00,
2013-05-09 19:09:00,71.2,63.0,29.80,SE,139,0.0,1.0,76,0.00,,,0.16,weatherlink.com 1.10,2013-05-10 00:09:00,
2013-05-09 19:24:00,71.0,64.0,29.81,SE,139,1.0,1.0,79,0.00,,,0.16,weatherlink.com 1.10,2013-05-10 00:24:00,
2013-05-09 19:39:00,69.8,64.0,29.82,SE,138,0.0,1.0,83,0.00,,,0.16,weatherlink.com 1.10,2013-05-10 00:39:00,
2013-05-09 19:54:00,68.3,64.0,29.82,SE,138,0.0,0.0,86,0.00,,,0.16,weatherlink.com 1.10,2013-05-10 00:54:00,
2013-05-09 20:09:00,66.9,63.0,29.82,SE,139,0.0,0.0,87,0.00,,,0.16,weatherlink.com 1.10,2013-05-10 01:09:00,
2013-05-09 20:24:00,65.8,63.0,29.82,SE,138,0.0,0.0,89,0.00,,,0.16,weatherlink.com 1.10,2013-05-10 01:24:00,
2013-05-09 20:39:00,66.6,63.0,29.84,NNW,331,7.0,11.0,89,0.00,,,0.16,weatherlink.com 1.10,2013-05-10 01:39:00,
2013-05-09 20:54:00,65.5,61.0,29.84,NW,314,3.0,10.0,85,0.00,,,0.16,weatherlink.com 1.10,2013-05-10 01:54:00,
2013-05-09 21:09:00,64.9,61.0,29.85,NNE,30,3.0,10.0,86,0.00,,,0.16,weatherlink.com 1.10,2013-05-10 02:09:00,
2013-05-09 21:24:00,64.2,60.0,29.85,North,9,3.0,3.0,87,0.00,,,0.16,weatherlink.com 1.10,2013-05-10 02:24:00,
2013-05-09 21:39:00,63.6,60.0,29.86,NE,51,1.0,5.0,89,0.00,,,0.16,weatherlink.com 1.10,2013-05-10 02:39:00,
2013-05-09 21:54:00,63.1,60.0,29.85,NNE,19,0.0,1.0,90,0.00,,,0.16,weatherlink.com 1.10,2013-05-10 02:54:00,
2013-05-09 22:09:00,62.4,60.0,29.85,NNE,18,0.0,0.0,91,0.00,,,0.16,weatherlink.com 1.10,2013-05-10 03:09:00,
2013-05-09 22:24:00,61.7,60.0,29.85,NNW,344,0.0,0.0,93,0.00,,,0.16,weatherlink.com 1.10,2013-05-10 03:24:00,
2013-05-09 22:39:00,61.2,60.0,29.86,NNW,344,0.0,0.0,94,0.00,,,0.16,weatherlink.com 1.10,2013-05-10 03:39:00,
2013-05-09 22:54:00,60.9,59.0,29.85,NNW,345,0.0,0.0,94,0.00,,,0.16,weatherlink.com 1.10,2013-05-10 03:54:00,
2013-05-09 23:09:00,60.5,59.0,29.85,NNW,344,0.0,0.0,95,0.00,,,0.16,weatherlink.com 1.10,2013-05-10 04:09:00,
2013-05-09 23:24:00,60.1,59.0,29.84,NNW,344,0.0,0.0,96,0.00,,,0.16,weatherlink.com 1.10,2013-05-10 04:24:00,
2013-05-09 23:39:00,60.0,59.0,29.85,ENE,58,0.0,0.0,96,0.00,,,0.16,weatherlink.com 1.10,2013-05-10 04:39:00,
2013-05-09 23:54:00,59.9,59.0,29.86,ENE,58,0.0,0.0,97,0.00,,,0.16,weatherlink.com 1.10,2013-05-10 04:54:00,